Погода в Никольском

Украина / Донецкая область     47°11′58″N   37°19′07″E
темп.,
°C
ветер,
м/с
пор.,
м/с
влажн.,
%
обл.,
%
осадки,
мм/ч
давл.,
гПа
погр.,
м
29 июля, чт
чт2900:00+22з34555 0.0 101559
03:00+21з235242 0.0 101530
06:00+20юз22605 0.0 101524
09:00+26юз34465 0.0 1014417
12:00+30юз45382 0.0 10131512
15:00+31ююз663822 0.0 10122066
18:00+29ююз56470 0.0 1011599
21:00+22зсз497396 0.4 1013193
30 июля, пт
пт3000:00+21сз3483100 0.1 101190
03:00+21юз238224 0.2 101143
06:00+21з22825 0.1 101130
09:00+26юз356066 0.1 1011533
12:00+30юз454698 0.0 10101351
15:00+31юз55415 0.0 10091525
18:00+29ю434710 0.0 1008715
21:00+22зсз127197 0.0 100958
31 июля, сб
сб3100:00+21зсз356566 0.0 100986
03:00+20ссз237398 0.0 100949
06:00+21зюз117612 0.0 101016
09:00+25с22640 0.0 1010482
12:00+30ссз11505 0.0 10101404
15:00+30сз114695 0.1 10091826
18:00+28с236265 0.0 1010118
21:00+26ссв366442 0.0 1011151
1 августа, вс
вс100:00+24св23660 0.0 101139
03:00+23св33690 0.0 101139
06:00+22ссв33730 0.0 101156
09:00+28всв33550 0.0 1011434
12:00+32юв23380 0.0 10111614
15:00+34ю34310 0.0 10102363
18:00+32ююз33395 0.0 1010447
21:00+26з22465 0.0 101020
2 августа, пн
пн200:00+25с225280 0.0 100921
03:00+25ссз225163 0.0 100915
06:00+24ссз335711 0.0 100932
09:00+30с33450 0.0 1009387
12:00+34зюз22320 0.0 10091572
15:00+35юз33280 0.0 10082486
18:00+33ююз45370 0.0 1008286
21:00+27з33500 0.0 100841